Sisseton, SD

11:36 PM CDT on March 22, 2017 (GMT -0500)
Sisseton

Weather History for K8D3 - October, 2010

Change the Weather History Date:

Tuesday, October 12, 2010

  Actual Average Record
Temperature  
Mean Temperature 56 °F 48 °F  
Max Temperature 65 °F 59 °F 85 °F (1996)
Min Temperature 47 °F 37 °F 17 °F (1980)
Degree Days  
Heating Degree Days 9 17  
Month to date heating degree days 89 177  
Since 1 July heating degree days 325 422  
Cooling Degree Days 0 0  
Month to date cooling degree days 7 0  
Year to date cooling degree days 594 523  
Growing Degree Days 6 (Base 50)    
Moisture  
Dew Point 40 °F    
Average Humidity 56    
Maximum Humidity 83    
Minimum Humidity 29    
Precipitation  
Precipitation 0.00 in 0.07 in 1.12 in (1973)
Month to date precipitation 0.00 1.03  
Year to date precipitation 21.76 20.31  
Snow  
Snow 0.00 in - - ()
Month to date snowfall 0.0  
Since 1 July snowfall 0.0  
Snow Depth 0.00 in    
Sea Level Pressure  
Sea Level Pressure 30.06 in    
Wind  
Wind Speed 14 mph (NNW)    
Max Wind Speed 24 mph    
Max Gust Speed 31 mph    
T = Trace of Precipitation, MM = Missing Value Source: NWS Daily Summary

Daily Weather History Graph

Daily Weather History Graph

Search for Another Location

Airport or City:

Trip Planner

Search our weather history database for the weather conditions in past years. The results will help you decide how hot, cold, wet, or windy it might be!

Date:

Astronomy

Oct. 12, 2010 Rise Set
Actual Time 7:40 AM CDT 6:47 PM CDT
Civil Twilight 7:10 AM CDT 7:17 PM CDT
Nautical Twilight 6:36 AM CDT 7:51 PM CDT
Astronomical Twilight 6:01 AM CDT 8:26 PM CDT
Moon 1:31 PM CDT (10/12) 10:09 PM CDT (10/12)
Length of Visible Light 12h 06m
Length of Day
11h 07m
Waxing Crescent, 29% of the Moon is Illuminated
Oct 12
Waxing Crescent
Oct 14
First Quarter
Oct 22
Full
Oct 30
Last Quarter
Nov 5
New

Hourly Weather History & Observations

Time (CDT) Temp. Dew Point Humidity Pressure Visibility Wind Dir Wind Speed Gust Speed Precip Events Conditions
12:56 AM 60.1 °F 52.0 °F 75% 29.83 in - West 5.8 mph - N/A   Unknown
1:56 AM 62.1 °F 51.1 °F 67% 29.84 in - West 10.4 mph - N/A   Unknown
2:56 AM 61.0 °F 51.1 °F 70% 29.87 in - NW 12.7 mph 24.2 mph N/A   Unknown
3:56 AM 57.0 °F 50.0 °F 77% 29.89 in - NNW 15.0 mph - N/A   Unknown
4:56 AM 55.9 °F 48.9 °F 77% 29.92 in - NNW 16.1 mph 23.0 mph N/A   Unknown
5:56 AM 54.0 °F 48.9 °F 83% 29.96 in - NNW 16.1 mph 26.5 mph N/A   Unknown
6:56 AM 53.1 °F 48.9 °F 86% 29.99 in - NNW 13.8 mph - N/A   Unknown
7:56 AM 54.0 °F 48.9 °F 83% 30.01 in - NNW 15.0 mph - N/A   Unknown
8:56 AM 55.9 °F 50.0 °F 80% 30.05 in - NNW 15.0 mph 24.2 mph N/A   Unknown
9:56 AM 54.0 °F 46.9 °F 77% 30.08 in - NNW 19.6 mph 27.6 mph N/A   Unknown
10:56 AM 59.0 °F 45.0 °F 60% 30.08 in - NNW 15.0 mph 25.3 mph N/A   Unknown
11:56 AM 61.0 °F 39.9 °F 46% 30.10 in - North 18.4 mph 25.3 mph N/A   Unknown
12:56 PM 62.1 °F 36.0 °F 38% 30.11 in - NNW 19.6 mph 28.8 mph N/A   Unknown
1:56 PM 64.9 °F 34.0 °F 32% 30.10 in - North 21.9 mph 26.5 mph N/A   Unknown
2:56 PM 64.9 °F 34.0 °F 32% 30.10 in - NNW 18.4 mph 24.2 mph N/A   Unknown
3:56 PM 64.0 °F 32.0 °F 30% 30.12 in - North 18.4 mph 28.8 mph N/A   Unknown
4:56 PM 63.0 °F 32.0 °F 31% 30.13 in - NNW 18.4 mph 24.2 mph N/A   Unknown
5:56 PM 61.0 °F 28.9 °F 30% 30.14 in - North 13.8 mph 24.2 mph N/A   Unknown
6:56 PM 54.0 °F 28.9 °F 38% 30.16 in - NW 8.1 mph - N/A   Unknown
7:56 PM 48.0 °F 28.9 °F 48% 30.19 in - WNW 8.1 mph - N/A   Unknown
8:56 PM 51.1 °F 30.0 °F 44% 30.19 in - NW 8.1 mph - N/A   Unknown
9:56 PM 50.0 °F 32.0 °F 50% 30.20 in - NW 8.1 mph - N/A   Unknown
10:56 PM 51.1 °F 33.1 °F 50% 30.19 in - NW 6.9 mph - N/A   Unknown
11:56 PM 48.9 °F 33.1 °F 54% 30.19 in - WNW 5.8 mph - N/A   Unknown